Regional Weather Roundup
Issued by NWS New Orleans/Baton Rouge, LA

Home | Current Version | Previous Version | Graphics & Text | Print | Product List | Glossary Off
Versions: 1 2 3 4 5 6 7 8 9 10 11 12 13 14 15 16 17 18 19 20 21 22 23 24 25 26 27 28 29 30 31 32 33 34 35 36 37 38 39 40 41 42 43 44 45 46 47 48 49 50

886
ASUS44 KLIX 310311
RWRLIX
NEW ORLEANS REGIONAL WEATHER ROUNDUP
NATIONAL WEATHER SERVICE NEW ORLEANS LA
1000 PM CDT MON MAR 30 2015

NOTE: "FAIR" INDICATES FEW OR NO CLOUDS BELOW 12,000 FEET WITH NO
      SIGNIFICANT WEATHER AND/OR OBSTRUCTIONS TO VISIBILITY.
      SKY/WX - SKY CONDITION AND SIGNIFICANT WEATHER.
      TMP - AIR TEMPERATURE.     DP    - DEWPOINT TEMPERATURE.
      RH  - RELATIVE HUMIDITY.   PRES  - PRESSURE.
      HI  - HEAT INDEX.          WCI   - WIND CHILL INDEX.

*  THESE STATIONS ARE NOT NWS OR FAA STATIONS AND ARE NOT UNDER
   NWS QUALITY CONTROL.

LAZ038-040-048-061>063-065>067-069-310400-
SOUTHEAST LOUISIANA

CITY           SKY/WX    TMP DP  RH WIND       PRES   REMARKS
N.O. AUDUBON     N/A     67  67 100 MISG        N/A
N.O. INTL ARPT CLEAR     70  61  73 SW8       30.17R
N.O. LAKEFRONT CLEAR     74  63  68 SW13      30.17R
SLIDELL        CLEAR     72  63  73 VRB5      30.15R
BATON ROUGE    CLEAR     70  61  73 SW8       30.15R
BOOTHVILLE     CLEAR     71  67  87 SW7       30.18R
BELLE CHASSE   PTCLDY    67  62  84 SW5       30.17R
BOGALUSA*        N/A     68  60  74 W3        30.16R
GALLIANO*      CLEAR     68  65  88 SW3       30.18R
NEW ROADS*       N/A     68  58  70 S5        30.15S
GONZALES*        N/A     68  63  85 CALM      30.16S
HAMMOND*       MOCLDY    72  59  64 W8        30.17R
HOUMA*         CLEAR     64  63  96 CALM      30.17S
PORT FOURCHON* CLEAR     72  66  83 CALM      30.21S

$$

MSZ070-080>082-310400-
SOUTHERN MISSISSIPPI

CITY           SKY/WX    TMP DP  RH WIND       PRES   REMARKS
MCCOMB         PTCLDY    63  57  81 CALM      30.14R
GULFPORT       CLEAR     72  64  76 SW5       30.14R
BILOXI         CLEAR     70  67  90 SW12      30.14R
PASCAGOULA     CLEAR     70  63  78 SW7       30.15R

$$

COASTAL OBSERVATIONS
LAKE AND NEARSHORE STATIONS

STATION/POSITION TIME  TEMP    WIND        PRES    WAVE
                       AIR SEA DIR/SP/G            HT/PER
                 (UTC) (F)     (DEG/KT/KT) (MB)    (FT/S)
PASCAGOULA       0200   71     220/ 15/ 20 1020.2
WAVELAND YACHT   0200   72 68  230/  7/ 10 1020.4
GRAND ISLE       0200   71 71  220/  5/  6 1021.5
SOUTHWEST PASS   0200   68 55  200/  5/  6 1022.3
NEW CANAL        0206   73     230/  6/  9 1021.6
SHELL BEACH      0206   72 71  210/ 12/ 15 1021.1

OFFSHORE STATIONS

STATION/POSITION TIME  TEMP    WIND        PRES    WAVE
                       AIR SEA DIR/SP/G            HT/PER
                 (UTC) (F)     (DEG/KT/KT) (MB)    (FT/S)
64 S DAUPHIN ISL 0250   71 71  210/ 14/ 17 1022.2    3/ 6

$$




USA.gov is the U.S. government's official web portal to all federal, state and local government web resources and services.